{"data":{"norad_id":59297,"intl_designator":"2024-056B","name":"STARLINK-31487","alt_names":[],"object_type":"PAYLOAD","status":"ACTIVE","operator":null,"country":"US","launch_date":"2024-03-24","launch_site_code":"AFETR","launch_vehicle":null,"mission":null,"orbit_class":"UNKNOWN","rcs_meters":null,"size_class":null,"mass_kg":null,"dimensions":null,"purposes":["comms"],"wikipedia_slug":null,"has_3d_model":false,"image_url":null,"decayed_at":null,"tle_current":{"epoch":"2026-05-25T01:44:45.243168Z","epoch_age_seconds":72781,"freshness":"FRESH","line1":"1 59297U 24056B   26145.07274587  .00000847  00000+0  40317-4 0  9994","line2":"2 59297  43.0004 159.5528 0001263 278.3579  81.7129 15.27576552122955","mean_motion":15.27576552,"eccentricity":0.0001263,"inclination_deg":43.0004,"raan_deg":159.5528,"arg_perigee_deg":278.3579,"mean_anomaly_deg":81.7129,"bstar":4.0317e-5,"rev_number":12295,"period_min":94.266961489731,"perigee_km":482.19285150356,"apogee_km":483.92598971941,"semimajor_km":6861.1964206115,"source":"CELESTRAK","updated_at":"2026-05-25T13:38:18.896887Z"}}}